• En España
  • Lista de países
  • Para 7 días
  • Temperatura del agua
  • Mapa Satelital
  • El tiempo en el mapa
  • Informadores
  • user-avatar
    Iniciar sesión

    Tiempo cada hora Rebordosa

    Hoy, 23 Septiembre, Domingo

    Tiempo Temperatura Precipitaciones Viento Presión Humedad
    00:00 +21°C° 0 mm 2 mps 738 mmHg 62%
    01:00 +20°C° 0 mm 2 mps 738 mmHg 62%
    02:00 +20°C° 0 mm 2 mps 738 mmHg 62%
    03:00 +20°C° 0 mm 2 mps 737 mmHg 62%
    04:00 +20°C° 0 mm 2 mps 737 mmHg 62%
    05:00 +19°C° 0 mm 2 mps 737 mmHg 62%
    06:00 +23°C° 0 mm 2 mps 738 mmHg 56%
    07:00 +25°C° 0 mm 2 mps 738 mmHg 50%
    08:00 +27°C° 0 mm 1 mps 738 mmHg 43%
    09:00 +29°C° 0 mm 2 mps 738 mmHg 38%
    10:00 +31°C° 0 mm 2 mps 739 mmHg 33%
    11:00 +34°C° 0 mm 2 mps 739 mmHg 27%
    12:00 +34°C° 0 mm 3 mps 738 mmHg 27%
    13:00 +34°C° 0 mm 3 mps 738 mmHg 28%
    14:00 +34°C° 0 mm 4 mps 738 mmHg 28%
    15:00 +32°C° 0 mm 4 mps 738 mmHg 35%
    16:00 +29°C° 0 mm 4 mps 737 mmHg 42%
    17:00 +28°C° 0 mm 4 mps 737 mmHg 48%
    18:00 +26°C° 0 mm 3 mps 737 mmHg 53%
    19:00 +25°C° 0 mm 3 mps 738 mmHg 58%
    20:00 +24°C° 0 mm 3 mps 738 mmHg 63%
    21:00 +24°C° 0 mm 3 mps 738 mmHg 65%
    22:00 +22°C° 0 mm 3 mps 738 mmHg 66%
    23:00 +22°C° 0 mm 3 mps 738 mmHg 68%

    Mañana, 24 Septiembre, Lunes

    Tiempo Temperatura Precipitaciones Viento Presión Humedad
    00:00 +22°C° 0 mm 3 mps 737 mmHg 69%
    01:00 +21°C° 0 mm 3 mps 737 mmHg 70%
    02:00 +21°C° 0 mm 3 mps 737 mmHg 71%
    03:00 +21°C° 0 mm 3 mps 737 mmHg 72%
    04:00 +21°C° 0 mm 3 mps 737 mmHg 73%
    05:00 +21°C° 0 mm 3 mps 737 mmHg 74%
    06:00 +22°C° 0 mm 3 mps 737 mmHg 68%
    07:00 +25°C° 0 mm 3 mps 737 mmHg 62%
    08:00 +26°C° 0 mm 3 mps 738 mmHg 55%
    09:00 +28°C° 0 mm 3 mps 738 mmHg 49%
    10:00 +30°C° 0 mm 3 mps 737 mmHg 43%
    11:00 +33°C° 0 mm 3 mps 737 mmHg 37%
    12:00 +34°C° 0 mm 3 mps 737 mmHg 35%
    13:00 +34°C° 0 mm 3 mps 736 mmHg 32%
    14:00 +35°C° 0 mm 3 mps 736 mmHg 30%
    15:00 +33°C° 0 mm 3 mps 736 mmHg 34%
    16:00 +31°C° 0 mm 3 mps 735 mmHg 39%
    17:00 +29°C° 0 mm 3 mps 735 mmHg 43%
    18:00 +28°C° 0 mm 3 mps 735 mmHg 46%
    19:00 +27°C° 0 mm 3 mps 736 mmHg 48%
    20:00 +26°C° 0 mm 3 mps 736 mmHg 51%
    21:00 +25°C° 0 mm 3 mps 736 mmHg 51%
    22:00 +25°C° 0 mm 3 mps 736 mmHg 52%
    23:00 +24°C° 0 mm 3 mps 736 mmHg 52%

    Pasado mañana, 25 Septiembre, Martes

    Tiempo Temperatura Precipitaciones Viento Presión Humedad
    00:00 +22°C° 0 mm 3 mps 735 mmHg 53%
    01:00 +22°C° 0 mm 3 mps 735 mmHg 54%
    02:00 +21°C° 0 mm 3 mps 735 mmHg 54%
    03:00 +20°C° 0 mm 3 mps 735 mmHg 52%
    04:00 +20°C° 0 mm 3 mps 735 mmHg 50%
    05:00 +19°C° 0 mm 3 mps 735 mmHg 48%
    06:00 +20°C° 0 mm 3 mps 735 mmHg 43%
    07:00 +21°C° 0 mm 3 mps 735 mmHg 37%
    08:00 +24°C° 0 mm 3 mps 736 mmHg 32%
    09:00 +26°C° 0 mm 2 mps 736 mmHg 28%
    10:00 +28°C° 0 mm 2 mps 736 mmHg 25%
    11:00 +31°C° 0 mm 2 mps 736 mmHg 22%
    12:00 +32°C° 0 mm 2 mps 735 mmHg 22%
    13:00 +34°C° 0 mm 2 mps 735 mmHg 22%
    14:00 +35°C° 0 mm 2 mps 734 mmHg 22%
    15:00 +32°C° 0 mm 2 mps 734 mmHg 26%
    16:00 +30°C° 0 mm 2 mps 734 mmHg 29%
    17:00 +28°C° 0 mm 2 mps 734 mmHg 33%
    18:00 +27°C° 0 mm 2 mps 734 mmHg 35%
    19:00 +26°C° 0 mm 2 mps 734 mmHg 36%
    20:00 +25°C° 0 mm 2 mps 735 mmHg 37%
    21:00 +24°C° 0 mm 2 mps 735 mmHg 37%
    22:00 +23°C° 0 mm 2 mps 735 mmHg 38%
    23:00 +23°C° 0 mm 2 mps 735 mmHg 38%

    26 Septiembre, Miércoles

    Tiempo Temperatura Precipitaciones Viento Presión Humedad
    00:00 +21°C° 0 mm 2 mps 735 mmHg 39%
    01:00 +21°C° 0 mm 2 mps 734 mmHg 39%
    02:00 +20°C° 0 mm 2 mps 734 mmHg 39%
    03:00 +20°C° 0 mm 2 mps 735 mmHg 39%
    04:00 +20°C° 0 mm 2 mps 735 mmHg 40%
    05:00 +19°C° 0 mm 2 mps 735 mmHg 40%
    06:00 +21°C° 0 mm 2 mps 735 mmHg 38%
    07:00 +24°C° 0 mm 2 mps 736 mmHg 36%
    08:00 +25°C° 0 mm 2 mps 736 mmHg 34%
    09:00 +28°C° 0 mm 2 mps 736 mmHg 31%
    10:00 +30°C° 0 mm 2 mps 736 mmHg 29%
    11:00 +32°C° 0 mm 2 mps 737 mmHg 26%
    12:00 +32°C° 0 mm 2 mps 736 mmHg 28%
    13:00 +32°C° 0 mm 2 mps 736 mmHg 29%
    14:00 +33°C° 0 mm 3 mps 736 mmHg 30%
    15:00 +30°C° 0 mm 2 mps 736 mmHg 37%
    16:00 +28°C° 0 mm 2 mps 736 mmHg 43%
    17:00 +27°C° 0 mm 1 mps 736 mmHg 49%
    18:00 +26°C° 0 mm 1 mps 736 mmHg 51%
    19:00 +24°C° 0 mm 1 mps 737 mmHg 54%
    20:00 +23°C° 0 mm 1 mps 737 mmHg 57%
    21:00 +23°C° 0 mm 1 mps 737 mmHg 56%
    22:00 +23°C° 0 mm 1 mps 737 mmHg 55%
    23:00 +23°C° 0 mm 1 mps 737 mmHg 54%

    27 Septiembre, Jueves

    Tiempo Temperatura Precipitaciones Viento Presión Humedad
    00:00 +23°C° 0 mm 1 mps 737 mmHg 54%
    01:00 +23°C° 0 mm 1 mps 737 mmHg 53%
    02:00 +22°C° 0 mm 1 mps 737 mmHg 53%
    03:00 +22°C° 0 mm 1 mps 737 mmHg 53%
    04:00 +22°C° 0 mm 1 mps 737 mmHg 54%
    05:00 +22°C° 0 mm 1 mps 737 mmHg 54%
    06:00 +24°C° 0.1 mm 1 mps 737 mmHg 51%
    07:00 +26°C° 0.1 mm 1 mps 738 mmHg 47%
    08:00 +25°C° 0.1 mm 0 mps 738 mmHg 43%
    09:00 +29°C° 0 mm 1 mps 738 mmHg 40%
    10:00 +31°C° 0 mm 1 mps 738 mmHg 37%
    11:00 +32°C° 0 mm 2 mps 738 mmHg 34%
    12:00 +32°C° 0 mm 2 mps 737 mmHg 35%
    13:00 +32°C° 0 mm 2 mps 737 mmHg 36%
    14:00 +31°C° 0 mm 3 mps 737 mmHg 38%
    15:00 +30°C° 0.1 mm 2 mps 737 mmHg 44%
    16:00 +28°C° 0.1 mm 2 mps 736 mmHg 50%
    17:00 +27°C° 0.1 mm 2 mps 736 mmHg 57%
    18:00 +25°C° 0.4 mm 1 mps 737 mmHg 62%
    19:00 +24°C° 0.4 mm 1 mps 737 mmHg 68%
    20:00 +23°C° 0.4 mm 1 mps 737 mmHg 73%
    21:00 +23°C° 0.2 mm 1 mps 737 mmHg 74%
    22:00 +22°C° 0.2 mm 1 mps 737 mmHg 75%
    23:00 +22°C° 0.2 mm 1 mps 736 mmHg 76%

    28 Septiembre, Viernes

    Tiempo Temperatura Precipitaciones Viento Presión Humedad
    00:00 +22°C° 0.2 mm 1 mps 736 mmHg 76%
    01:00 +21°C° 0.2 mm 1 mps 736 mmHg 77%
    02:00 +21°C° 0.2 mm 1 mps 735 mmHg 77%
    03:00 +21°C° 0 mm 1 mps 735 mmHg 78%
    04:00 +21°C° 0 mm 1 mps 735 mmHg 79%
    05:00 +20°C° 0 mm 1 mps 735 mmHg 79%
    06:00 +22°C° 0 mm 1 mps 736 mmHg 73%
    07:00 +24°C° 0 mm 1 mps 736 mmHg 66%
    08:00 +26°C° 0 mm 1 mps 736 mmHg 60%
    09:00 +27°C° 0 mm 1 mps 736 mmHg 54%
    10:00 +29°C° 0 mm 2 mps 736 mmHg 48%
    11:00 +30°C° 0 mm 2 mps 736 mmHg 43%
    12:00 +30°C° 0 mm 3 mps 735 mmHg 42%
    13:00 +30°C° 0 mm 3 mps 735 mmHg 42%
    14:00 +30°C° 0 mm 4 mps 734 mmHg 42%
    15:00 +28°C° 0 mm 3 mps 734 mmHg 48%
    16:00 +26°C° 0 mm 3 mps 734 mmHg 53%
    17:00 +24°C° 0 mm 3 mps 734 mmHg 59%
    18:00 +23°C° 0 mm 2 mps 734 mmHg 65%
    19:00 +21°C° 0 mm 2 mps 734 mmHg 70%
    20:00 +19°C° 0 mm 2 mps 734 mmHg 75%
    21:00 +19°C° 0 mm 2 mps 734 mmHg 75%
    22:00 +19°C° 0 mm 1 mps 734 mmHg 75%
    23:00 +19°C° 0 mm 1 mps 733 mmHg 75%
    Mostrar más